Location: Trebic
(49.2170°N, 15.8830°E)
Time: 02:13:51
(UTC+02:00)

Courier 1B Rocket - Pass Details

Date: 01 September 2019
Orbit: 920 x 1202 km, 28.2° (Epoch: 17 September)

Event Time Altitude Azimuth Distance (km) Brightness Sun altitude
Rises 03:44:07 0° 237° (WSW) 3,751 - -21.7°
Reaches altitude 10° 03:50:11 10° 197° (SSW) 2,891 - -21.0°
Maximum altitude 03:50:54 10° 191° (S) 2,889 - -20.9°
Drops below altitude 10° 03:51:38 10° 185° (S) 2,913 - -20.8°
Exits shadow 03:53:45 - 169° (SSE) 3,113 7.3 -20.6°
Sets 03:58:00 0° 145° (SE) 3,961 8.1 -20.1°
